Flag for Germany Weather past 2 weeks in Ettlingen, Baden-Württemberg, Germany

Now
61 °F

Sprinkles. Broken clouds.


Feels Like: 61 °F
Forecast: 42 / 59 °F
Wind: 6 mph from North

Location: Karlsruhe - Baden Wurttemberg

Current Time: Sep 21, 2014 at 6:50:39 PM

Latest Report: Sep 21, 2014 at 6:20 PM


Visibility: 4 mi

Pressure: 30.01 "Hg

Humidity: 88%

Dew point: 57 °F

Location of EttlingenLocation

Historic Weather in Ettlingen — Graph

°F

Ettlingen temperature yesterday

Maximum temperature yesterday: 77 °F (at 3:20 PM)
Minimum temperature yesterday: 59 °F (at 4:50 AM)
Average temperature yesterday: 67 °F

Past Weeks' High & Low Weather Summary

 TemperatureHumidityPressure
High81 °F (Sep 6, 5:20 PM)94% (Sep 7, 1:20 AM)30.18 "Hg (Sep 7, 1:20 AM)
Low50 °F (Sep 11, 4:50 AM)42% (Sep 6, 5:20 PM)29.83 "Hg (Sep 17, 4:20 PM)
Average64 °F77%29.99 "Hg
* Reported Sep 6 5:20 PM — Sep 21 5:20 PM, Ettlingen, Weather by CustomWeather, © 2014

Note: Actual official high and low records may vary slightly from our data, if they occured in-between our weather recording intervals... More about our weather records

Advertising

Ettlingen weather history for previous 24 hours

 ConditionsComfort  
Time TempWeatherWind HumidityBarometerVisibility
5:20 PM
Sep 21
63 °FSprinkles. Broken clouds.5 mph88%29.98 "Hg4 mi
4:50 PM64 °FSprinkles. Broken clouds.7 mph78%29.98 "Hg6 mi
4:20 PM64 °FBroken clouds.5 mph78%29.98 "HgN/A
3:50 PM66 °FSprinkles. Broken clouds.6 mph73%29.98 "HgN/A
3:20 PM66 °FSprinkles. Broken clouds.5 mph73%29.98 "HgN/A
2:50 PM66 °FBroken clouds.8 mph73%29.98 "HgN/A
2:20 PM68 °FBroken clouds.10 mph69%29.98 "HgN/A
1:50 PM66 °FBroken clouds.7 mph73%29.98 "HgN/A
1:20 PM66 °FBroken clouds.7 mph73%29.98 "HgN/A
12:50 PM66 °FScattered showers. Partly sunny.8 mph73%30.01 "HgN/A
12:20 PM66 °FBroken clouds.7 mph73%30.01 "HgN/A
11:50 AM66 °FPartly sunny.7 mph73%30.01 "HgN/A
11:20 AM66 °FPartly sunny.8 mph78%30.01 "HgN/A
10:50 AM64 °FBroken clouds.7 mph83%30.01 "Hg6 mi
10:20 AM64 °FScattered showers. Broken clouds.5 mph88%30.01 "Hg6 mi
9:50 AM64 °FScattered showers. Broken clouds.7 mph88%29.98 "Hg5 mi
9:20 AM63 °FScattered showers. Broken clouds.7 mph94%29.98 "HgN/A
8:50 AM63 °FScattered showers. Broken clouds.7 mph94%29.98 "HgN/A
8:20 AM63 °FScattered showers. Broken clouds.7 mph88%29.98 "HgN/A
7:50 AM63 °FScattered showers. Partly cloudy.6 mph88%29.98 "HgN/A
7:20 AM63 °FLight rain. Passing clouds.3 mph88%29.98 "Hg6 mi
6:50 AM61 °FSprinkles. Passing clouds.3 mph94%29.98 "HgN/A
6:20 AM61 °FSprinkles. Partly cloudy.3 mph94%29.98 "HgN/A
5:50 AM61 °FSprinkles. Partly cloudy.3 mph94%29.98 "HgN/A
5:20 AM61 °FRain showers. Partly cloudy.3 mph94%29.98 "Hg5 mi
4:50 AM61 °FPassing clouds.1 mph88%29.98 "HgN/A
10:20 PM
Sep 20
64 °FThundershowers. Clear.2 mph88%29.98 "HgN/A
9:50 PM64 °FThundershowers. Clear.2 mph83%29.98 "HgN/A
9:20 PM64 °FThundershowers. Passing clouds.2 mph83%29.98 "HgN/A
8:50 PM68 °FThundershowers. Passing clouds.3 mph78%29.98 "HgN/A
8:20 PM68 °FThundershowers. Scattered clouds.5 mph78%29.98 "HgN/A
7:50 PM70 °FScattered clouds.3 mph73%29.95 "Hg5 mi
Weather by CustomWeather, © 2014

See weather overviewHow to use our weather pages